TimeEST,TemperatureF,Dew PointF,Humidity,Sea Level PressureIn,VisibilityMPH,Wind Direction,Wind SpeedMPH,Gust SpeedMPH,PrecipitationIn,Events,Conditions,WindDirDegrees,DateUTC
12:53 AM,41.0,26.1,55,30.34,10.0,NW,8.1,-,N/A,,Clear,320,2013-02-18 05:53:00
1:53 AM,42.1,25.0,51,30.34,10.0,NW,9.2,-,N/A,,Clear,320,2013-02-18 06:53:00
2:53 AM,42.1,23.0,47,30.32,10.0,NW,9.2,-,N/A,,Clear,320,2013-02-18 07:53:00
3:53 AM,42.1,24.1,49,30.31,10.0,NNW,8.1,-,N/A,,Clear,330,2013-02-18 08:53:00
4:53 AM,42.1,23.0,47,30.32,10.0,NW,9.2,-,N/A,,Clear,320,2013-02-18 09:53:00
5:53 AM,41.0,23.0,49,30.32,10.0,NW,8.1,-,N/A,,Clear,320,2013-02-18 10:53:00
6:53 AM,41.0,25.0,53,30.32,10.0,NNW,6.9,-,N/A,,Clear,330,2013-02-18 11:53:00
7:53 AM,46.0,28.9,51,30.34,10.0,NW,8.1,-,N/A,,Clear,320,2013-02-18 12:53:00
8:53 AM,54.0,36.0,51,30.34,10.0,NNW,8.1,-,N/A,,Partly Cloudy,330,2013-02-18 13:53:00
9:53 AM,64.0,43.0,46,30.34,10.0,ESE,4.6,-,N/A,,Scattered Clouds,110,2013-02-18 14:53:00
10:53 AM,66.9,42.1,40,30.35,10.0,East,11.5,-,N/A,,Scattered Clouds,100,2013-02-18 15:53:00
11:53 AM,66.9,43.0,42,30.35,10.0,ESE,11.5,-,N/A,,Overcast,110,2013-02-18 16:53:00
12:53 PM,64.9,45.0,48,30.33,10.0,ENE,15.0,19.6,N/A,,Mostly Cloudy,70,2013-02-18 17:53:00
1:53 PM,68.0,45.0,43,30.30,10.0,ESE,12.7,-,N/A,,Mostly Cloudy,110,2013-02-18 18:53:00
2:53 PM,66.0,46.0,48,30.29,10.0,East,15.0,19.6,N/A,,Overcast,90,2013-02-18 19:53:00
3:53 PM,66.0,46.9,50,30.28,10.0,East,10.4,-,N/A,,Overcast,90,2013-02-18 20:53:00
4:53 PM,64.9,46.9,52,30.28,10.0,ESE,11.5,-,N/A,,Overcast,120,2013-02-18 21:53:00
5:53 PM,64.9,45.0,48,30.29,10.0,SE,8.1,-,N/A,,Overcast,130,2013-02-18 22:53:00
6:53 PM,63.0,45.0,52,30.29,10.0,SE,6.9,-,N/A,,Mostly Cloudy,130,2013-02-18 23:53:00
7:53 PM,60.1,46.9,62,30.27,10.0,SE,3.5,-,N/A,,Mostly Cloudy,140,2013-02-19 00:53:00
8:53 PM,57.0,46.0,67,30.27,10.0,Calm,Calm,-,N/A,,Mostly Cloudy,0,2013-02-19 01:53:00
9:53 PM,51.1,45.0,80,30.27,10.0,West,3.5,-,N/A,,Scattered Clouds,270,2013-02-19 02:53:00
10:53 PM,53.1,46.9,80,30.26,10.0,Calm,Calm,-,N/A,,Mostly Cloudy,0,2013-02-19 03:53:00
11:53 PM,51.1,46.0,83,30.24,10.0,Calm,Calm,-,N/A,,Partly Cloudy,0,2013-02-19 04:53:00